COSMOS 1275 DEB, 42215

Orbit data source: Space-Track

COSMOS 1275 DEB, 42215 is space debris in LEO originally from a launch on Thu, 04 Jun 1981 UTC launched from the Plesetsk Missile And Space Complex (PKMTR). Debris objects in space refer to the collection of defunct objects orbiting the Earth. Examples of debris include non-operational satellites, rocket bodies, and fragments generated from explosions, collisions, or faulty payload assembly.

Loading next visibility...
Identifier
42215, 1981-053UF
Orbit
LEO
Country
Flag of CISCIS
Related business
Manufacturer
Unknown
Mission
Spacecraft
Bus & Motor
Unknown
Mass
Unknown
Launch date (UTC)
1981-06-04 (44 years ago)
Launch vehicle
Unknown
Launch site
Plesetsk Missile And Space Complex (PKMTR)
Object type
Payload
Rocket body
Debris
Shape & HBR
Unknown shape, 0.1 m
Radar Cross Section
Small (<0.1 m²)

Expand to show TLE details & history
Last TLE update: 5 days ago

TLE from 5 days ago
0 COSMOS 1275 DEB
1 42215U 81053UF  25289.91664389  .00001898  00000-0  17756-2 0  9997
2 42215  82.9024 156.6632 0107220  20.5004 340.0407 13.78737874597131
Epoch: 2025-10-16T21:59Z
TLE epoch observation values (Epoch: 2025-10-16T21:59:58.032Z)
Latitude
0.00001°
Longitude
161.0019°
Altitude
897.318 km
Speed
7.441 km/s
True Right ascension
10h 26m 39s
True Declination
0° 00' 00"
Sunlit
Object was in daylight at epoch
Visualization orbit readout
Latitude
Unknown
Longitude
Unknown
Altitude
Unknown
Speed
Unknown
Apparent Right ascension
Unknown
Apparent Declination
Unknown
Sunlit
N/A
Visualization observer readout
Local Sidereal Time
06:26:52
Azimuth
Unknown
Elevation
Unknown
Doppler factor
Unknown
Orbital elements
Apogee altitude
1,044.25 km
Perigee altitude
886.773 km
Semi-major axis
7,343.648 km
Eccentricity
0.01072
Inclination
82.9024°
RAAN
156.6632°
Arg. of periapsis
20.5004°
True anomaly
339.61595°
Mean anomaly
340.0407°
Eccentric anomaly
339.82887°
Mean motion
3.44886 °/min
Orbital period
104.38 mins
BSTAR
0.0017756

Documentation

Showing up to 5 results
|